• Processing (Info)

  • MPEC 2018-V36 : 2018 VJ1

    The following Minor Planet Electronic Circular may be linked-to from your own Web pages, but must not otherwise be redistributed electronically.

    A form allowing access to any MPEC is at the bottom of this page.


    Read MPEC 2018-V35 Read MPEC 2018-V37


    M.P.E.C. 2018-V36                                Issued 2018 Nov. 4, 20:09 UT
    
         The Minor Planet Electronic Circulars contain information on unusual
             minor planets and routine data on comets.  They are published
        on behalf of Division F of the International Astronomical Union by the
              Minor Planet Center, Smithsonian Astrophysical Observatory,
                              Cambridge, MA 02138, U.S.A.
    
                 Prepared using the Tamkin Foundation Computer Network
    
                                  MPC@CFA.HARVARD.EDU
                URL https://www.minorplanetcenter.net/    ISSN 1523-6714
    
                                       2018 VJ1
    
    Observations:
         K18V01J* C2018 11 02.12241 00 16 30.23 +04 45 29.8          20.4 GVEV036G96
         K18V01J  C2018 11 02.12806 00 16 33.19 +04 44 41.0          20.1 GVEV036G96
         K18V01J  C2018 11 02.13373 00 16 36.17 +04 43 52.8          20.7 GVEV036G96
         K18V01J  C2018 11 02.13938 00 16 39.15 +04 43 03.9          20.4 GVEV036G96
         K18V01J  C2018 11 02.22400700 17 23.10 +04 30 52.2          20.9 GVEV036H01
         K18V01J  C2018 11 02.22723600 17 24.80 +04 30 24.4          20.7 GVEV036H01
         K18V01J  C2018 11 02.23498 00 17 29.08 +04 29 19.4                VEV036I52
         K18V01J  C2018 11 02.23643 00 17 29.83 +04 29 06.8                VEV036I52
         K18V01J  C2018 11 02.23788 00 17 30.61 +04 28 54.8                VEV036I52
         K18V01J  C2018 11 02.23934 00 17 31.37 +04 28 42.1                VEV036I52
         K18V01J  C2018 11 02.24210400 17 32.57 +04 28 16.5          20.4 GVEV036H01
         K18V01J  C2018 11 02.24751700 17 35.39 +04 27 29.8          20.0 GVEV036H01
         K18V01J  C2018 11 02.28095 00 17 53.08 +04 22 43.8          20.6 GVEV036G96
         K18V01J  C2018 11 02.28135 00 17 53.33 +04 22 40.1          20.6 GVEV036G96
         K18V01J  C2018 11 02.28176 00 17 53.54 +04 22 36.8          20.5 GVEV036G96
         K18V01J  C2018 11 02.28216 00 17 53.77 +04 22 33.7          20.6 GVEV036G96
         K18V01J  C2018 11 02.29949300 18 06.525+04 20 20.96         20.5 GVEV036F52
         K18V01J  C2018 11 02.31155500 18 12.777+04 18 37.36         20.5 GVEV036F52
         K18V01J  C2018 11 02.32361600 18 18.992+04 16 53.82         20.5 GVEV036F52
         K18V01J  C2018 11 02.33569900 18 25.224+04 15 10.51         20.7 GVEV036F52
         K18V01J  C2018 11 03.12754 00 25 36.34 +02 23 23.6          20.3 GVEV036I52
         K18V01J  C2018 11 03.12879 00 25 36.97 +02 23 12.9          20.5 GVEV036I52
         K18V01J  C2018 11 03.13003 00 25 37.59 +02 23 02.5          20.4 GVEV036I52
         K18V01J  C2018 11 03.13231 00 25 38.76 +02 22 43.8          20.3 GVEV036I52
         K18V01J  C2018 11 03.13249300 25 38.56 +02 22 40.4          20.6 GVEV036H01
         K18V01J  C2018 11 03.13574400 25 40.21 +02 22 13.4          20.1 GVEV036H01
         K18V01J  C2018 11 03.14785800 25 46.34 +02 20 32.5          20.5 GVEV036H01
         K18V01J  C2018 11 03.15454200 25 49.71 +02 19 37.3          20.8 GVEV036H01
         K18V01J  C2018 11 04.19420 00 34 53.10 -00 00 53.6          20.8 GVEV036I52
         K18V01J  C2018 11 04.19628 00 34 54.09 -00 01 09.4          20.6 GVEV036I52
         K18V01J  C2018 11 04.19836 00 34 55.09 -00 01 26.1          20.7 GVEV036I52
         K18V01J  C2018 11 04.20043 00 34 56.14 -00 01 43.2          21.3 GVEV036I52
         K18V01J  C2018 11 04.20465200 34 57.90 -00 02 18.0          20.7 GVEV036H01
         K18V01J  C2018 11 04.20839600 34 59.71 -00 02 47.7          20.7 GVEV036H01
         K18V01J  C2018 11 04.22807300 35 09.25 -00 05 23.0          20.8 GVEV036H01
         K18V01J  C2018 11 04.23147200 35 10.92 -00 05 49.8          20.6 GVEV036H01
    
    Observer details:
    F52 Pan-STARRS 2, Haleakala.  Observers J. Bulger, K. Chambers, T. Dukes,
        T. Lowe, E. Magnier, A. Schultz, M. Willman.  Measurers S. Chastel,
        M. Huber, Y. Ramanjooloo, R. Wainscoat, R. Weryk.  1.8-m Ritchey-Chretien
        + CCD.
    G96 Mt. Lemmon Survey.  Observer B. M. Africano.  Measurers B. M. Africano,
        E. J. Christensen, G. A. Farneth, D. C. Fuls, A. R. Gibbs, A. D. Grauer,
        H. Groeller, J. A. Johnson, R. A. Kowalski, S. M. Larson, G. J. Leonard,
        R. L. Seaman, F. C. Shelly.  1.5-m reflector + 10K CCD.
    H01 Magdalena Ridge Observatory, Socorro.  Observers W. H. Ryan, E. V. Ryan.
        Measurer W. H. Ryan.  2.4-m f/8.9 Ritchey-Chretien + CCD.
    I52 Steward Observatory, Mt. Lemmon Station.  Observers R. A. Kowalski,
        H. Groeller.  Measurers B. M. Africano, E. J. Christensen, G. A. Farneth,
        D. C. Fuls, A. R. Gibbs, A. D. Grauer, H. Groeller, J. A. Johnson,
        R. A. Kowalski, S. M. Larson, G. J. Leonard, R. L. Seaman, F. C. Shelly.
        1.0-m reflector + CCD.
    
    Orbital elements:
    2018 VJ1                                                 Earth MOID = 0.0848 AU
    Epoch 2019 Apr. 27.0 TT = JDT 2458600.5                 MPC
    M  97.24246              (2000.0)            P               Q
    n   0.49680533     Peri.  158.79688     +0.95172634     -0.24942319
    a   1.5788658      Node   217.14706     +0.22128170     +0.96144678
    e   0.3259324      Incl.   17.23302     +0.21272370     +0.11579361
    P   1.98           H   24.2           G   0.15           U   7
    Residuals in seconds of arc
    181102 G96  0.0   0.2-    181102 G96  0.5-  0.1-    181103 H01  0.1+  0.0
    181102 G96  0.2-  0.3-    181102 G96  0.2+  0.3-    181103 H01  0.1+  0.0
    181102 G96  0.3-  0.4+    181102 G96  0.1+  0.1-    181103 H01  0.0   0.3-
    181102 G96  0.1-  0.2+    181102 G96  0.4+  0.2+    181103 H01  0.2-  0.0
    181102 H01  0.0   0.1-    181102 F52  0.0   0.1+    181104 I52  0.1-  0.1-
    181102 H01  0.2+  0.1-    181102 F52  0.2+  0.0     181104 I52  0.4-  0.5+
    181102 I52  0.3-  0.4-    181102 F52  0.0   0.1-    181104 I52  0.5-  0.3+
    181102 I52  0.4-  0.5-    181102 F52  0.0   0.3+    181104 I52  0.2+  0.5-
    181102 I52  0.1-  0.0     181103 I52  0.1+  0.3+    181104 H01  0.2+  0.1-
    181102 I52  0.1-  0.1-    181103 I52  0.0   0.0     181104 H01  0.1+  0.2-
    181102 H01  0.3+  0.1+    181103 I52  0.1-  0.1-    181104 H01  0.0   0.1-
    181102 H01  0.1+  0.1+    181103 I52  0.1+  0.1+    181104 H01  0.4+  0.0
    
    Ephemeris:
    2018 VJ1                 a,e,i = 1.58, 0.33, 17                  q = 1.0643
    Date    TT    R. A. (2000) Decl.     Delta      r     Elong.  Phase     V
    2018 10 05    20 09 03.9 +46 53 24   0.1743  1.0672   108.1    63.0    22.8
    ...
    2018 10 20    22 02 15.8 +34 24 27   0.1144  1.0662   125.4    49.6    21.5
    ...
    2018 10 28    23 25 50.5 +17 36 18   0.1007  1.0735   140.7    35.9    20.8
    ...
    2018 11 03    00 24 25.4 +02 41 54   0.1063  1.0823   146.4    30.5    20.8
    2018 11 04    00 33 12.1 +00 25 39   0.1086  1.0840   146.4    30.4    20.9
    2018 11 05    00 41 39.3 -01 44 01   0.1113  1.0859   146.2    30.5    20.9
    ...
    2018 11 11    01 25 27.7 -12 05 30   0.1334  1.0983   142.0    33.7    21.4
    ...
    2018 11 19    02 07 45.8 -19 46 54   0.1741  1.1188   135.3    38.4    22.2
    ...
    2018 12 04    02 56 18.2 -24 02 32   0.2673  1.1675   127.4    42.1    23.3
    
    A. U. Tomatic                (C) Copyright 2018 MPC           M.P.E.C. 2018-V36
    

    Read MPEC 2018-V35 Read MPEC 2018-V37


    MPEC number:

    Enter an MPEC number in one of the following forms:

    • 1997-B01 (the full form)
    • J97B01 (the packed version of the full form)
    • B01 (the abbreviated form)